When you browse on this site, cookies collect data to enhance your experience and personalize the content and advertising you see.
Visit our Privacy Policy to learn more. By continuing to use the site, you agree to this use of cookies and data.
  • In Hungary
  • List of Countries
  • For 7 days
  • Water Temperature
  • Weather Map
  • News
  • Weather Widgets
  • user-avatar
    Login

    Hourly Weather Saalfelden am Steinernen Meer

    Today, 13 December, Friday

    Time Temperature Precipitation Wind Pressure Humidity
    00:00 -4°C° 0 mm 2 mps 678 mmHg 84%
    01:00 -5°C° 0 mm 3 mps 677 mmHg 78%
    02:00 -5°C° 0 mm 3 mps 676 mmHg 77%
    03:00 -5°C° 0 mm 3 mps 675 mmHg 76%
    04:00 -5°C° 0 mm 3 mps 674 mmHg 75%
    05:00 -5°C° 0 mm 3 mps 674 mmHg 75%
    06:00 -5°C° 0 mm 3 mps 673 mmHg 74%
    07:00 -4°C° 0 mm 3 mps 673 mmHg 74%
    08:00 -4°C° 0 mm 4 mps 672 mmHg 73%
    09:00 -3°C° 0 mm 4 mps 671 mmHg 71%
    10:00 -2°C° 0 mm 4 mps 670 mmHg 70%
    11:00 -1°C° 0.1 mm 3 mps 670 mmHg 71%
    12:00 0°C° 0.1 mm 3 mps 670 mmHg 72%
    13:00 +2°C° 0.1 mm 2 mps 670 mmHg 73%
    14:00 +1°C° 0.8 mm 2 mps 670 mmHg 79%
    15:00 +1°C° 0.8 mm 2 mps 670 mmHg 85%
    16:00 +1°C° 0.8 mm 1 mps 671 mmHg 92%
    17:00 +1°C° 0.3 mm 1 mps 671 mmHg 89%
    18:00 +1°C° 0.3 mm 1 mps 672 mmHg 87%
    19:00 0°C° 0.3 mm 1 mps 672 mmHg 85%
    20:00 0°C° 0 mm 1 mps 673 mmHg 85%
    21:00 0°C° 0 mm 1 mps 674 mmHg 86%
    22:00 0°C° 0 mm 1 mps 674 mmHg 86%
    23:00 0°C° 0 mm 1 mps 675 mmHg 86%

    Tomorrow, 14 December, Saturday

    Time Temperature Precipitation Wind Pressure Humidity
    00:00 +1°C° 0 mm 1 mps 676 mmHg 87%
    01:00 +1°C° 0 mm 1 mps 677 mmHg 88%
    02:00 0°C° 0 mm 1 mps 677 mmHg 87%
    03:00 -1°C° 0 mm 1 mps 677 mmHg 86%
    04:00 -1°C° 0 mm 1 mps 678 mmHg 85%
    05:00 -3°C° 0 mm 2 mps 678 mmHg 81%
    06:00 -3°C° 0 mm 2 mps 679 mmHg 77%
    07:00 -2°C° 0 mm 2 mps 679 mmHg 72%
    08:00 -1°C° 0.1 mm 2 mps 680 mmHg 71%
    09:00 +2°C° 0.1 mm 2 mps 680 mmHg 70%
    10:00 +4°C° 0.1 mm 2 mps 681 mmHg 68%
    11:00 +5°C° 0 mm 1 mps 682 mmHg 71%
    12:00 +6°C° 0 mm 1 mps 682 mmHg 73%
    13:00 +7°C° 0 mm 1 mps 682 mmHg 76%
    14:00 +6°C° 0 mm 1 mps 683 mmHg 77%
    15:00 +5°C° 0 mm 1 mps 683 mmHg 78%
    16:00 +4°C° 0 mm 1 mps 684 mmHg 80%
    17:00 +4°C° 0 mm 1 mps 684 mmHg 76%
    18:00 +4°C° 0 mm 1 mps 685 mmHg 73%
    19:00 +2°C° 0 mm 2 mps 686 mmHg 70%
    20:00 +3°C° 0 mm 2 mps 686 mmHg 67%
    21:00 +3°C° 0 mm 2 mps 687 mmHg 64%
    22:00 +3°C° 0 mm 2 mps 687 mmHg 62%
    23:00 +3°C° 0 mm 2 mps 687 mmHg 62%

    Day after tomorrow, 15 December, Sunday

    Time Temperature Precipitation Wind Pressure Humidity
    00:00 +3°C° 0 mm 2 mps 687 mmHg 62%
    01:00 +3°C° 0 mm 2 mps 688 mmHg 62%
    02:00 +3°C° 0 mm 2 mps 687 mmHg 62%
    03:00 +3°C° 0 mm 2 mps 687 mmHg 61%
    04:00 +3°C° 0 mm 2 mps 687 mmHg 60%
    05:00 +3°C° 0 mm 2 mps 687 mmHg 60%
    06:00 +2°C° 0 mm 2 mps 688 mmHg 60%
    07:00 +2°C° 0 mm 2 mps 688 mmHg 60%
    08:00 +3°C° 0 mm 2 mps 688 mmHg 62%
    09:00 +4°C° 0 mm 2 mps 689 mmHg 64%
    10:00 +6°C° 0 mm 1 mps 689 mmHg 66%
    11:00 +7°C° 0 mm 1 mps 689 mmHg 70%
    12:00 +7°C° 0 mm 1 mps 689 mmHg 73%
    13:00 +8°C° 0 mm 1 mps 689 mmHg 77%
    14:00 +7°C° 0 mm 1 mps 690 mmHg 76%
    15:00 +6°C° 0 mm 1 mps 690 mmHg 75%
    16:00 +5°C° 0 mm 1 mps 690 mmHg 73%
    17:00 +4°C° 0 mm 1 mps 690 mmHg 74%
    18:00 +3°C° 0 mm 2 mps 691 mmHg 74%
    19:00 +3°C° 0 mm 2 mps 691 mmHg 74%
    20:00 +2°C° 0 mm 2 mps 691 mmHg 75%
    21:00 +2°C° 0 mm 2 mps 692 mmHg 75%
    22:00 +2°C° 0 mm 2 mps 692 mmHg 76%
    23:00 +2°C° 0 mm 2 mps 692 mmHg 76%

    16 December, Monday

    Time Temperature Precipitation Wind Pressure Humidity
    00:00 +1°C° 0 mm 3 mps 692 mmHg 77%
    01:00 +1°C° 0 mm 3 mps 692 mmHg 78%
    02:00 +1°C° 0 mm 3 mps 692 mmHg 78%
    03:00 +1°C° 0 mm 3 mps 692 mmHg 78%
    04:00 +1°C° 0 mm 3 mps 692 mmHg 78%
    05:00 +1°C° 0 mm 3 mps 692 mmHg 78%
    06:00 +1°C° 0 mm 3 mps 692 mmHg 78%
    07:00 +1°C° 0 mm 3 mps 692 mmHg 77%
    08:00 +2°C° 0 mm 3 mps 692 mmHg 77%
    09:00 +3°C° 0 mm 3 mps 692 mmHg 78%
    10:00 +4°C° 0 mm 3 mps 692 mmHg 78%
    11:00 +5°C° 0 mm 3 mps 692 mmHg 80%
    12:00 +5°C° 0 mm 3 mps 691 mmHg 81%
    13:00 +7°C° 0 mm 3 mps 691 mmHg 83%
    14:00 +6°C° 0 mm 4 mps 691 mmHg 83%
    15:00 +5°C° 0 mm 4 mps 691 mmHg 82%
    16:00 +5°C° 0 mm 4 mps 691 mmHg 82%
    17:00 +5°C° 0 mm 4 mps 691 mmHg 82%
    18:00 +5°C° 0 mm 4 mps 691 mmHg 82%
    19:00 +5°C° 0 mm 4 mps 691 mmHg 82%
    20:00 +5°C° 0 mm 4 mps 691 mmHg 82%
    21:00 +5°C° 0 mm 4 mps 691 mmHg 82%
    22:00 +5°C° 0 mm 4 mps 691 mmHg 82%
    23:00 +5°C° 0 mm 4 mps 690 mmHg 82%

    17 December, Tuesday

    Time Temperature Precipitation Wind Pressure Humidity
    00:00 +5°C° 0 mm 4 mps 690 mmHg 82%
    01:00 +5°C° 0 mm 4 mps 690 mmHg 82%
    02:00 +5°C° 0 mm 4 mps 690 mmHg 82%
    03:00 +5°C° 0 mm 4 mps 690 mmHg 81%
    04:00 +5°C° 0 mm 4 mps 690 mmHg 81%
    05:00 +5°C° 0 mm 4 mps 690 mmHg 81%
    06:00 +5°C° 0 mm 4 mps 690 mmHg 81%
    07:00 +5°C° 0 mm 4 mps 690 mmHg 80%
    08:00 +5°C° 0 mm 4 mps 690 mmHg 81%
    09:00 +6°C° 0 mm 4 mps 691 mmHg 81%
    10:00 +6°C° 0 mm 4 mps 691 mmHg 81%
    11:00 +6°C° 0 mm 4 mps 691 mmHg 83%
    12:00 +7°C° 0 mm 4 mps 690 mmHg 85%
    13:00 +8°C° 0 mm 3 mps 690 mmHg 86%
    14:00 +8°C° 0 mm 3 mps 690 mmHg 86%
    15:00 +7°C° 0 mm 3 mps 690 mmHg 86%
    16:00 +7°C° 0 mm 3 mps 690 mmHg 86%
    17:00 +7°C° 0 mm 3 mps 690 mmHg 85%
    18:00 +7°C° 0 mm 3 mps 690 mmHg 85%
    19:00 +5°C° 0 mm 3 mps 690 mmHg 84%
    20:00 +5°C° 0 mm 3 mps 690 mmHg 84%
    21:00 +5°C° 0 mm 3 mps 690 mmHg 84%
    22:00 +5°C° 0 mm 4 mps 691 mmHg 83%
    23:00 +5°C° 0 mm 4 mps 691 mmHg 83%

    18 December, Wednesday

    Time Temperature Precipitation Wind Pressure Humidity
    00:00 +5°C° 0 mm 4 mps 691 mmHg 83%
    01:00 +5°C° 0 mm 4 mps 691 mmHg 82%
    02:00 +5°C° 0 mm 4 mps 691 mmHg 82%
    03:00 +5°C° 0 mm 3 mps 691 mmHg 83%
    04:00 +5°C° 0 mm 3 mps 691 mmHg 83%
    05:00 +5°C° 0 mm 3 mps 691 mmHg 83%
    06:00 +5°C° 0 mm 3 mps 691 mmHg 83%
    07:00 +5°C° 0 mm 3 mps 691 mmHg 83%
    08:00 +5°C° 0 mm 3 mps 691 mmHg 83%
    09:00 +7°C° 0 mm 3 mps 691 mmHg 84%
    10:00 +7°C° 0 mm 3 mps 691 mmHg 84%
    11:00 +8°C° 0 mm 3 mps 691 mmHg 84%
    12:00 +8°C° 0 mm 3 mps 691 mmHg 85%
    13:00 +8°C° 0 mm 3 mps 690 mmHg 85%
    14:00 +8°C° 0 mm 3 mps 690 mmHg 84%
    15:00 +7°C° 0 mm 3 mps 690 mmHg 83%
    16:00 +7°C° 0 mm 3 mps 690 mmHg 83%
    17:00 +7°C° 0 mm 3 mps 690 mmHg 83%
    18:00 +5°C° 0 mm 3 mps 690 mmHg 83%
    19:00 +5°C° 0 mm 3 mps 690 mmHg 83%
    20:00 +5°C° 0 mm 3 mps 690 mmHg 84%
    21:00 +5°C° 0 mm 3 mps 690 mmHg 85%
    22:00 +5°C° 0 mm 3 mps 690 mmHg 85%
    23:00 +5°C° 0 mm 3 mps 689 mmHg 86%
    Show more